METAR Formatted Surface Weather Observation
Issued by NWS

Home | Current Version | Previous Version | Text Only | Print | Product List | Glossary On
Versions: 1 2 3 4 5 6 7 8 9 10 11 12 13 14 15 16 17 18 19 20 21 22 23 24 25 26 27 28 29 30 31 32 33 34 35 36 37 38 39 40 41 42 43 44 45 46 47 48 49 50
000
SAUS46 KMFR 251757
MTRSXT
METAR KSXT 251756Z AUTO VRB03KT 1/4SM FZFG VV002 M01/M01 A3017 RMK
AO2 SNE25 SLP244 P0000 60004 I6000 T10061006 11006 21011 53011



USA.gov is the U.S. government's official web portal to all federal, state and local government web resources and services.